Powrót do katalogu

COSMOS 2310

AktywnyMilitariaPO
NORAD 23526·PAYLOAD·🇷🇺 Russia

Wystrzelony Mar 21, 1995 z Plesetsk Cosmodrome

Loading…

Następne Przeloty (najbliższe 24 godziny)

TLE

ŚwieżeSource: Space-Track

Epoka: Sep 14, 2026, 23:11 UTC

1 23526U 95012A   26257.96614214  .00000033  00000-0  19143-4 0  9998
2 23526  82.9421  82.6861 0023345  46.9701 106.6182 13.72340866576238

Śledź COSMOS 2310 w czasie rzeczywistym z AllMySat

Download on the App Store